Regional Weather Roundup
Issued by NWS

Home | Current Version | Previous Version | Text Only | Print | Product List | Glossary On
Versions: 1 2 3 4 5 6 7 8 9 10 11 12 13 14 15 16 17 18 19 20 21 22 23 24 25 26 27 28 29 30 31 32 33 34 35 36 37 38 39 40 41 42 43 44 45 46 47 48 49 50
000
ASUS44 KJAN 080010
RWRMS

MISSISSIPPI HOURLY WEATHER ROUNDUP
NATIONAL WEATHER SERVICE JACKSON MS
600 PM CST SUN FEB 07 2016

NOTE: "FAIR: INDICATES FEW OR NO CLOUDS BELOW 12,000 FEET WITH NO
SIGNIFICANT WEATHER AND/OR OBSTRUCTIONS TO VISIBILITY.

MSZ001>002-007>008-010>013-018>021-025>028-034>036-080100-
NORTHWEST MISSISSIPPI

CITY           SKY/WX    TMP DP  RH WIND       PRES   REMARKS
CLEVELAND      FAIR      50  41  71 S7        30.05S
GREENWOOD      CLEAR     52  31  44 SW7       30.07F
6HR MIN TEMP:  52; 6HR MAX TEMP:  59;

GREENVILLE     CLEAR     50  32  50 SW10      30.06S
6HR MIN TEMP:  50; 6HR MAX TEMP:  59;

OLIVE BRANCH   MOCLDY    48  32  53 SW8       30.00F
OXFORD         FAIR      50  30  46 SW7       30.04F
TUNICA         CLEAR     46  32  57 SW6       30.03S
$$

MSZ003>006-009-014>017-022>024-029>033-037>039-080100-
NORTHEAST MISSISSIPPI

CITY           SKY/WX    TMP DP  RH WIND       PRES   REMARKS
COLUMBUS AFB   CLEAR     49  27  43 SW5       30.04S
6HR MIN TEMP:  49; 6HR MAX TEMP:  59;

CORINTH        FAIR      54  25  32 SW7       30.00F
GOLDN TRIANGLE PTCLDY    54  25  32 CALM      30.04F
STARKVILLE     FAIR      52  27  37 CALM      30.05F
TUPELO         CLEAR     52  23  32 SW6       30.04S
6HR MIN TEMP:  52; 6HR MAX TEMP:  59;

$$

MSZ040-058-080100-
CENTRAL MISSISSIPPI

CITY           SKY/WX    TMP DP  RH WIND       PRES   REMARKS
JACKSON INTL   PTCLDY    56  26  31 W7        30.10S
6HR MIN TEMP:  55; 6HR MAX TEMP:  75;

JACKSON HAWKNS CLEAR     53  25  33 W7        30.10S
6HR MIN TEMP:  53; 6HR MAX TEMP:  60;

MERIDIAN KEY   CLEAR     49  28  44 W5        30.09S
6HR MIN TEMP:  49; 6HR MAX TEMP:  60;

MERIDIAN NAS   PTCLDY    52  20  28 W6        30.08S
6HR MIN TEMP:  52; 6HR MAX TEMP:  60;

VICKSBURG      CLEAR     55  30  38 SW3       30.11S
6HR MIN TEMP:  55; 6HR MAX TEMP:  61;

$$

MSZ059>079-080100-
SOUTH MISSISSIPPI

CITY           SKY/WX    TMP DP  RH WIND       PRES   REMARKS
BROOKHAVEN     FAIR      55  30  38 SW3       30.13S HAZE
HATTIESBURG    CLEAR     55  23  28 SW3       30.12S
6HR MIN TEMP:  55; 6HR MAX TEMP:  61;

MCCOMB         CLEAR     55  27  34 SW5       30.12S
6HR MIN TEMP:  55; 6HR MAX TEMP:  61;

NATCHEZ        CLEAR     54  28  37 SW3       30.13S
6HR MIN TEMP:  54; 6HR MAX TEMP:  59;

PINE BELT      CLEAR     48  27  43 CALM      30.11F
6HR MIN TEMP:  48; 6HR MAX TEMP:  59;

$$

MSZ080>082-080100-
COASTAL MISSISSIPPI

CITY           SKY/WX    TMP DP  RH WIND       PRES   REMARKS
BAY ST LOUIS   CLEAR     50  21  32 CALM      30.15R
BILOXI         CLEAR     52  33  49 W10G18    30.14R
6HR MIN TEMP:  52; 6HR MAX TEMP:  60;

PASCAGOULA     CLEAR     49  34  56 SW5       30.14R
6HR MIN TEMP:  49; 6HR MAX TEMP:  62;

GULFPORT       CLEAR     52  28  39 W5        30.14S
6HR MIN TEMP:  52; 6HR MAX TEMP:  60;

$$



USA.gov is the U.S. government's official web portal to all federal, state and local government web resources and services.